Content
SEND FEEDBACK

Daily
Averages
Monthly
Summary
United States of America

UMATAC, GUAM


Home > North America > United States > Guam
Elevation: 190 feet     Latitude: 13 17N     Longitude: 144 40E

WEATHER
 
SELECT A DAY
Number of Records: 352,517;   Date Range: 1/1/95 - 10/30/14
 
SHARE

PRINT THIS DATA

[ ← Previous Day ]
WEATHER ALMANAC - OCTOBER 28, 2013
[ Next Day → ]
[ °C ]   °F
Weather ElementAverageHighLow
Temperature77.9 °F80.6 °F (8:38 am)75.2 °F (9:21 am)
Dewpoint76.4 °F77.7 °F (11:58 am)73.4 °F (1:38 am)
Humidity95.1 %100 % (2:32 am)89 % (1:38 am)
Barometer29.83 in29.90 in (7:31 pm)29.75 in (3:58 am)
Wind Speed16.3 mph25.3 mph (2:32 am)
Wind Gust33.4 mph (1:58 am)
Weather ElementAverage
Visibility8.3 mi
Wind DirectionESE (129.3 °)

Weather ElementTotal
Precipitation0.47 in
Cooling Degree Days12.9 (Base 65)
Growing Degree Days27.9 (Base 50)
Averaged from 106 records on October 28, 2013
WEATHER CONDITIONS BREAKOUT
WIND DIRECTION BREAKOUT
WEATHER BY HOUR - OCTOBER 28, 2013
[ °C ]   °F
Local TimeTemperatureDewpointHumidityBarometerVisibilityWind DirectionWind SpeedGust SpeedPrecipitationEventsConditions
1:38 AM77.0 °F73.4 °F89 %29.81 in10.0 miEast (80°)19.6 mph25.3 mphMostly Cloudy
1:48 AM77.0 °F75.2 °F94 %29.80 in10.0 miEast (90°)20.7 mph27.6 mphMostly Cloudy
1:53 AM77.0 °F75.2 °F94 %29.80 in10.0 miEast (100°)20.7 mph28.8 mphMostly Cloudy
1:54 AM77.0 °F75.2 °F94 %29.80 in9.0 miEast (100°)23.0 mph28.8 mphRainLight Rain
1:58 AM77.0 °F75.2 °F94 %29.77 in9.0 miEast (90°)19.6 mph33.4 mph0.00 inRainLight Rain
2:04 AM77.0 °F75.2 °F94 %29.80 in10.0 miEast (90°)20.7 mph33.4 mphMostly Cloudy
2:09 AM77.0 °F75.2 °F94 %29.80 in10.0 miEast (90°)19.6 mph26.5 mphMostly Cloudy
2:22 AM78.8 °F77.0 °F94 %29.79 in7.0 miEast (90°)23.0 mph32.2 mphRainLight Rain
2:27 AM78.8 °F77.0 °F94 %29.80 in3.0 miEast (100°)23.0 mph32.2 mphRainLight Rain
2:32 AM77.0 °F77.0 °F100 %29.79 in2.5 miEast (100°)25.3 mph32.2 mphRainLight Rain
2:37 AM77.0 °F77.0 °F100 %29.79 in3.0 miEast (100°)23.0 mph32.2 mphRainLight Rain
2:46 AM77.0 °F77.0 °F100 %29.79 in7.0 miEast (100°)17.3 mph28.8 mphOvercast
2:51 AM77.0 °F77.0 °F100 %29.79 in9.0 miESE (110°)15.0 mph23.0 mphOvercast
2:56 AM77.0 °F77.0 °F100 %29.79 in10.0 miESE (110°)16.1 mph23.0 mphMostly Cloudy
2:58 AM77.5 °F76.8 °F98 %29.76 in10.0 miEast (100°)15.0 mph23.0 mph0.06 inMostly Cloudy
3:03 AM77.0 °F77.0 °F100 %29.79 in10.0 miEast (100°)12.7 mph21.9 mphMostly Cloudy
3:06 AM78.8 °F77.0 °F94 %29.79 in8.0 miEast (90°)23.0 mph33.4 mphRainLight Rain
3:11 AM78.8 °F77.0 °F94 %29.80 in8.0 miEast (100°)19.6 mph33.4 mphRainLight Rain
3:16 AM77.0 °F77.0 °F100 %29.79 in9.0 miEast (100°)18.4 mph33.4 mphRainLight Rain
3:31 AM77.0 °F77.0 °F100 %29.79 in1.8 miESE (120°)18.4 mph29.9 mphRainHeavy Rain
3:36 AM77.0 °F77.0 °F100 %29.78 in1.8 miESE (120°)20.7 mph29.9 mphRainLight Rain
3:42 AM77.0 °F77.0 °F100 %29.78 in4.0 miESE (110°)16.1 mph27.6 mphRainLight Rain
3:47 AM77.0 °F77.0 °F100 %29.78 in7.0 miESE (110°)16.1 mph27.6 mphRainLight Rain
3:50 AM77.0 °F77.0 °F100 %29.79 in9.0 miESE (120°)15.0 mph24.2 mphOvercast
3:55 AM77.0 °F77.0 °F100 %29.79 in10.0 miESE (120°)16.1 mph24.2 mphMostly Cloudy
3:58 AM77.5 °F77.2 °F99 %29.75 in10.0 miESE (120°)20.7 mph25.3 mph0.14 inMostly Cloudy
4:08 AM78.8 °F77.0 °F94 %29.78 in10.0 miESE (110°)15.0 mph24.2 mphOvercast
4:13 AM78.8 °F77.0 °F94 %29.79 in10.0 miESE (110°)16.1 mph24.2 mphOvercast
4:28 AM78.8 °F77.0 °F94 %29.79 in10.0 miESE (110°)18.4 mph24.2 mphMostly Cloudy
4:38 AM78.8 °F77.0 °F94 %29.79 in10.0 miESE (110°)19.6 mph27.6 mphMostly Cloudy
4:58 AM78.6 °F76.3 °F92 %29.77 in10.0 miESE (120°)20.7 mph23.0 mphMostly Cloudy
5:03 AM78.8 °F77.0 °F94 %29.80 in10.0 miESE (120°)19.6 mph26.5 mphMostly Cloudy
5:53 AM78.8 °F77.0 °F94 %29.81 in10.0 miESE (120°)15.0 mphMostly Cloudy
5:58 AM78.8 °F76.6 °F93 %29.78 in10.0 miESE (120°)17.3 mphMostly Cloudy
6:03 AM78.8 °F77.0 °F94 %29.82 in10.0 miESE (110°)15.0 mph23.0 mphMostly Cloudy
6:33 AM78.8 °F77.0 °F94 %29.82 in10.0 miESE (120°)15.0 mph25.3 mphOvercast
6:40 AM78.8 °F77.0 °F94 %29.82 in7.0 miSE (140°)23.0 mph28.8 mphRainLight Rain
6:55 AM77.0 °F75.2 °F94 %29.83 in9.0 miSE (140°)15.0 mph25.3 mphMostly Cloudy
6:58 AM76.6 °F75.9 °F98 %29.81 in9.0 miSE (140°)13.8 mph0.00 inMostly Cloudy
7:03 AM77.0 °F77.0 °F100 %29.83 in8.0 miSE (140°)16.1 mph24.2 mphScattered Clouds
7:58 AM79.3 °F76.3 °F90 %29.81 in10.0 miSE (130°)23.0 mph28.8 mphScattered Clouds
8:33 AM78.8 °F77.0 °F94 %29.87 in10.0 miESE (120°)15.0 mphMostly Cloudy
8:38 AM80.6 °F77.0 °F89 %29.87 in10.0 miESE (120°)18.4 mph23.0 mphMostly Cloudy
8:48 AM78.8 °F77.0 °F94 %29.88 in10.0 miEast (100°)15.0 mph25.3 mphMostly Cloudy
8:58 AM77.9 °F76.8 °F96 %29.86 in10.0 miESE (110°)16.1 mph24.2 mphMostly Cloudy
9:03 AM77.0 °F77.0 °F100 %29.89 in9.0 miESE (120°)18.4 mph24.2 mphOvercast
9:04 AM77.0 °F77.0 °F100 %29.89 in7.0 miSE (130°)16.1 mph24.2 mphRainLight Rain
9:09 AM77.0 °F77.0 °F100 %29.89 in3.0 miSE (140°)23.0 mph28.8 mphRainLight Rain
9:21 AM75.2 °F75.2 °F100 %29.89 in9.0 miSSE (150°)16.1 mphMostly Cloudy
9:26 AM75.2 °F75.2 °F100 %29.89 in10.0 miSSE (150°)12.7 mphRainLight Rain
9:36 AM77.0 °F75.2 °F94 %29.89 in10.0 miSE (140°)15.0 mph19.6 mphScattered Clouds
9:42 AM77.0 °F77.0 °F100 %29.88 in10.0 miSE (140°)17.3 mphRainLight Rain
9:47 AM77.0 °F77.0 °F100 %29.89 in2.5 miSE (140°)16.1 mphRainLight Rain
9:52 AM77.0 °F77.0 °F100 %29.88 in2.5 miSE (140°)20.7 mph25.3 mphRainLight Rain
9:57 AM77.0 °F77.0 °F100 %29.88 in8.0 miSSE (150°)16.1 mph25.3 mphRainLight Rain
9:58 AM77.0 °F77.0 °F100 %29.86 in8.0 miSSE (150°)16.1 mph25.3 mph0.06 inRainLight Rain
9:59 AM77.0 °F77.0 °F100 %29.88 in10.0 miSSE (150°)19.6 mph26.5 mphMostly Cloudy
10:04 AM77.0 °F77.0 °F100 %29.88 in10.0 miSSE (150°)21.9 mph26.5 mphMostly Cloudy
10:14 AM77.0 °F75.2 °F94 %29.88 in9.0 miSSE (150°)20.7 mph26.5 mphRainLight Rain
10:19 AM77.0 °F75.2 °F94 %29.88 in2.5 miSE (130°)20.7 mph27.6 mphRainHeavy Rain
10:24 AM77.0 °F75.2 °F94 %29.87 in1.8 miSE (140°)18.4 mph27.6 mphRainLight Rain
10:29 AM77.0 °F75.2 °F94 %29.87 in3.0 miSE (140°)15.0 mph27.6 mphRainLight Rain
10:34 AM77.0 °F75.2 °F94 %29.87 in9.0 miSE (140°)15.0 mphRainLight Rain
10:35 AM77.0 °F75.2 °F94 %29.87 in10.0 miSE (140°)16.1 mphMostly Cloudy
10:58 AM77.5 °F75.9 °F95 %29.84 in10.0 miSE (130°)18.4 mph0.04 inScattered Clouds
11:58 AM80.4 °F77.7 °F91 %29.81 in10.0 miSE (130°)18.4 mph0.01 inScattered Clouds
12:08 PM80.6 °F77.0 °F89 %29.83 in10.0 miSE (130°)19.6 mphMostly Cloudy
12:43 PM77.0 °F75.2 °F94 %29.83 in1.5 miSSE (150°)16.1 mph26.5 mphMostly Cloudy
12:48 PM77.0 °F75.2 °F94 %29.83 in2.5 miSSE (150°)15.0 mph23.0 mphMostly Cloudy
12:53 PM77.0 °F75.2 °F94 %29.83 in9.0 miSE (140°)16.1 mphMostly Cloudy
12:58 PM78.1 °F76.3 °F94 %29.81 in10.0 miSE (130°)16.1 mph0.04 inScattered Clouds
1:58 PM80.6 °F77.0 °F89 %29.78 in10.0 miSE (130°)16.1 mphMostly Cloudy
2:28 PM80.6 °F77.0 °F89 %29.81 in10.0 miSE (130°)15.0 mphMostly Cloudy
2:33 PM80.6 °F77.0 °F89 %29.81 in10.0 miESE (120°)16.1 mphMostly Cloudy
2:38 PM80.6 °F77.0 °F89 %29.81 in10.0 miSE (130°)15.0 mphScattered Clouds
2:43 PM80.6 °F77.0 °F89 %29.81 in10.0 miSE (130°)15.0 mphMostly Cloudy
2:48 PM80.6 °F77.0 °F89 %29.81 in10.0 miSE (130°)15.0 mphMostly Cloudy
2:58 PM80.6 °F77.0 °F89 %29.78 in10.0 miSE (130°)13.8 mphMostly Cloudy
3:08 PM80.6 °F77.0 °F89 %29.81 in10.0 miSE (130°)18.4 mph21.9 mphMostly Cloudy
3:13 PM80.6 °F77.0 °F89 %29.81 in10.0 miSE (130°)16.1 mphMostly Cloudy
3:18 PM80.6 °F77.0 °F89 %29.81 in10.0 miESE (120°)16.1 mphMostly Cloudy
3:28 PM80.6 °F77.0 °F89 %29.81 in10.0 miESE (120°)13.8 mphScattered Clouds
3:38 PM80.6 °F77.0 °F89 %29.82 in10.0 miSSE (150°)16.1 mphMostly Cloudy
3:55 PM77.0 °F77.0 °F100 %29.83 in3.0 miSSE (150°)18.4 mph23.0 mphRainLight Rain
3:58 PM77.0 °F75.2 °F94 %29.81 in1.5 miSSE (150°)16.1 mph23.0 mph0.02 inRainHeavy Rain
4:03 PM77.0 °F75.2 °F94 %29.83 in1.2 miSE (130°)13.8 mphRainLight Rain
4:08 PM77.0 °F75.2 °F94 %29.83 in2.5 miSE (130°)12.7 mphRainLight Rain
4:09 PM77.0 °F75.2 °F94 %29.83 in4.0 miSE (130°)13.8 mphMostly Cloudy
4:14 PM77.0 °F75.2 °F94 %29.83 in9.0 miSE (130°)11.5 mphMostly Cloudy
4:19 PM77.0 °F75.2 °F94 %29.83 in10.0 miSE (130°)9.2 mphMostly Cloudy
4:58 PM78.8 °F77.0 °F94 %29.81 in10.0 miESE (120°)15.0 mph0.07 inScattered Clouds
5:58 PM79.0 °F76.8 °F93 %29.83 in10.0 miSE (130°)12.7 mphPartly Cloudy
6:13 PM78.8 °F77.0 °F94 %29.87 in10.0 miSE (130°)11.5 mphMostly Cloudy
6:23 PM78.8 °F77.0 °F94 %29.87 in10.0 miSSE (150°)19.6 mph27.6 mphMostly Cloudy
6:26 PM78.8 °F77.0 °F94 %29.88 in10.0 miSSE (160°)13.8 mph27.6 mphLight Drizzle
6:31 PM77.0 °F75.2 °F94 %29.88 in10.0 miSSE (160°)10.4 mph27.6 mphLight Drizzle
6:36 PM77.0 °F75.2 °F94 %29.88 in10.0 miSSE (160°)8.1 mphMostly Cloudy
6:41 PM77.0 °F75.2 °F94 %29.88 in10.0 miSSE (160°)9.2 mphScattered Clouds
6:58 PM76.8 °F76.3 °F98 %29.86 in10.0 miSSE (150°)5.8 mph0.00 inScattered Clouds
7:31 PM77.0 °F77.0 °F100 %29.90 in10.0 miSouth (180°)9.2 mphRainLight Rain
7:56 PM77.0 °F77.0 °F100 %29.90 in9.0 miSouth (190°)6.9 mphScattered Clouds
7:58 PM77.0 °F77.0 °F100 %29.87 in10.0 miSSW (200°)8.1 mph0.03 inScattered Clouds
8:58 PM77.5 °F76.5 °F96 %29.89 in10.0 miSSE (160°)6.9 mphPartly Cloudy
9:58 PM77.4 °F75.9 °F95 %29.89 in10.0 miSouth (190°)10.4 mphClear
10:58 PM77.0 °F75.6 °F95 %29.88 in10.0 miSouth (180°)6.9 mphScattered Clouds
11:58 PM76.8 °F75.4 °F95 %29.87 in10.0 miSouth (190°)6.9 mphMostly Cloudy
Hourly data recorded from PGUA, located miles away from Umatac, Guam







STORIES FROM OUR PARTNERS